Time,TemperatureF,DewpointF,PressureIn,WindDirection,WindDirectionDegrees,WindSpeedMPH,WindSpeedGustMPH,Humidity,HourlyPrecipIn,Conditions,Clouds,dailyrainin,SoftwareType,DateUTC
2013-06-25 00:01:00,57.0,51.0,-100.00,North,10,6.0,7.0,81,0.01,,,0.03,,2013-06-25 06:01:00,
2013-06-25 00:21:00,56.0,51.0,-100.00,NNE,27,2.0,3.0,83,0.01,,,0.04,,2013-06-25 06:21:00,
2013-06-25 00:33:00,56.0,51.0,-100.00,NE,54,2.0,3.0,82,0.00,,,0.04,,2013-06-25 06:33:00,
2013-06-25 00:43:00,56.0,51.0,-100.00,NNW,336,1.0,2.0,83,0.00,,,0.04,,2013-06-25 06:43:00,
2013-06-25 00:52:00,56.0,51.0,-100.00,NNW,336,1.0,2.0,83,0.00,,,0.04,,2013-06-25 06:52:00,
2013-06-25 01:02:00,56.0,52.0,-100.00,SW,222,2.0,2.0,86,0.00,,,0.05,,2013-06-25 07:02:00,
2013-06-25 01:22:00,55.0,52.0,-100.00,West,265,2.0,3.0,88,0.00,,,0.05,,2013-06-25 07:22:00,
2013-06-25 01:33:00,55.0,52.0,-100.00,NW,312,1.0,2.0,88,0.00,,,0.05,,2013-06-25 07:33:00,
2013-06-25 01:43:00,55.0,52.0,-100.00,NW,315,1.0,2.0,88,0.00,,,0.05,,2013-06-25 07:43:00,
2013-06-25 02:01:00,55.0,52.0,-100.00,NW,306,0.0,2.0,88,0.00,,,0.05,,2013-06-25 08:01:00,
2013-06-25 02:21:00,56.0,52.0,-100.00,SE,138,1.0,2.0,88,0.00,,,0.05,,2013-06-25 08:21:00,
2013-06-25 02:33:00,55.0,51.0,-100.00,ESE,116,1.0,2.0,86,0.00,,,0.05,,2013-06-25 08:33:00,
2013-06-25 03:01:00,54.0,52.0,-100.00,ESE,102,2.0,3.0,92,0.00,,,0.05,,2013-06-25 09:01:00,
2013-06-25 03:12:00,53.0,51.0,-100.00,East,90,2.0,3.0,94,0.00,,,0.05,,2013-06-25 09:12:00,
2013-06-25 03:21:00,53.0,51.0,-100.00,East,90,2.0,3.0,94,0.00,,,0.05,,2013-06-25 09:21:00,
2013-06-25 04:01:00,52.0,50.0,-100.00,ESE,113,1.0,2.0,93,0.00,,,0.05,,2013-06-25 10:01:00,
2013-06-25 04:11:00,52.0,50.0,-100.00,ESE,113,1.0,2.0,93,0.00,,,0.05,,2013-06-25 10:11:00,
2013-06-25 04:21:00,52.0,50.0,-100.00,ESE,113,1.0,2.0,93,0.00,,,0.05,,2013-06-25 10:21:00,
2013-06-25 04:33:00,51.0,49.0,-100.00,SSW,195,2.0,3.0,94,0.00,,,0.05,,2013-06-25 10:33:00,
2013-06-25 04:43:00,51.0,50.0,-100.00,ESE,121,3.0,4.0,95,0.00,,,0.05,,2013-06-25 10:43:00,
2013-06-25 04:52:00,51.0,50.0,-100.00,ESE,121,3.0,4.0,95,0.00,,,0.05,,2013-06-25 10:52:00,
2013-06-25 05:01:00,52.0,50.0,-100.00,SE,126,3.0,4.0,94,0.00,,,0.05,,2013-06-25 11:01:00,
2013-06-25 05:11:00,51.0,50.0,-100.00,SSE,168,3.0,4.0,94,0.00,,,0.05,,2013-06-25 11:11:00,
2013-06-25 05:34:00,52.0,51.0,-100.00,SW,226,3.0,4.0,95,0.00,,,0.05,,2013-06-25 11:34:00,
2013-06-25 05:43:00,52.0,50.0,-100.00,SSW,202,3.0,3.0,95,0.00,,,0.05,,2013-06-25 11:43:00,
2013-06-25 06:01:00,52.0,51.0,-100.00,SSW,192,3.0,4.0,95,0.00,,,0.05,,2013-06-25 12:01:00,
2013-06-25 06:11:00,52.0,51.0,-100.00,SSW,192,3.0,4.0,95,0.00,,,0.05,,2013-06-25 12:11:00,
2013-06-25 06:22:00,51.0,50.0,-100.00,South,188,2.0,3.0,95,0.00,,,0.05,,2013-06-25 12:22:00,
2013-06-25 06:43:00,51.0,49.0,-100.00,SSW,213,4.0,5.0,96,0.00,,,0.05,,2013-06-25 12:43:00,
2013-06-25 07:01:00,50.0,49.0,-100.00,North,4,1.0,3.0,96,0.00,,,0.05,,2013-06-25 13:01:00,
2013-06-25 07:22:00,51.0,50.0,-100.00,WSW,246,0.0,2.0,96,0.00,,,0.05,,2013-06-25 13:22:00,
2013-06-25 07:30:00,52.0,50.0,-100.00,ESE,112,2.0,2.0,95,0.00,,,0.05,,2013-06-25 13:30:00,
2013-06-25 07:34:00,51.0,50.0,-100.00,NNE,23,2.0,2.0,96,0.00,,,0.05,,2013-06-25 13:34:00,
2013-06-25 07:53:00,51.0,50.0,-100.00,SE,144,1.0,2.0,95,0.00,,,0.05,,2013-06-25 13:53:00,
2013-06-25 08:11:00,52.0,50.0,-100.00,ESE,112,2.0,2.0,95,0.00,,,0.05,,2013-06-25 14:11:00,
2013-06-25 08:22:00,52.0,50.0,-100.00,ESE,112,2.0,2.0,95,0.00,,,0.05,,2013-06-25 14:22:00,
2013-06-25 09:01:00,57.0,52.0,-100.00,SW,230,4.0,4.0,84,0.00,,,0.05,,2013-06-25 15:01:00,
2013-06-25 09:22:00,58.0,51.0,-100.00,SSW,205,4.0,6.0,77,0.00,,,0.05,,2013-06-25 15:22:00,
2013-06-25 10:03:00,61.0,51.0,-100.00,SSE,151,4.0,8.0,70,0.00,,,0.05,,2013-06-25 16:03:00,
2013-06-25 10:23:00,62.0,52.0,-100.00,SE,124,8.0,10.0,68,0.00,,,0.05,,2013-06-25 16:23:00,
2013-06-25 10:34:00,63.0,49.0,-100.00,SE,133,8.0,9.0,59,0.00,,,0.05,,2013-06-25 16:34:00,
2013-06-25 10:44:00,65.0,46.0,-100.00,South,169,8.0,11.0,51,0.00,,,0.05,,2013-06-25 16:44:00,
2013-06-25 10:52:00,65.0,46.0,-100.00,South,169,8.0,11.0,51,0.00,,,0.05,,2013-06-25 16:52:00,
2013-06-25 11:01:00,65.0,46.0,-100.00,South,169,8.0,11.0,51,0.00,,,0.05,,2013-06-25 17:01:00,
2013-06-25 11:11:00,65.0,46.0,-100.00,South,169,8.0,11.0,51,0.00,,,0.05,,2013-06-25 17:11:00,
2013-06-25 11:22:00,66.0,48.0,-100.00,SSE,158,7.0,12.0,52,0.00,,,0.05,,2013-06-25 17:22:00,
2013-06-25 11:44:00,66.0,47.0,-100.00,SE,145,9.0,13.0,49,0.00,,,0.05,,2013-06-25 17:44:00,
2013-06-25 11:53:00,66.0,47.0,-100.00,SE,145,9.0,13.0,49,0.00,,,0.05,,2013-06-25 17:53:00,
2013-06-25 12:02:00,67.0,47.0,-100.00,South,184,9.0,11.0,48,0.00,,,0.05,,2013-06-25 18:02:00,
2013-06-25 12:22:00,67.0,48.0,-100.00,South,182,7.0,12.0,50,0.00,,,0.05,,2013-06-25 18:22:00,
2013-06-25 12:34:00,68.0,48.0,-100.00,South,174,9.0,12.0,48,0.00,,,0.05,,2013-06-25 18:34:00,
2013-06-25 12:44:00,69.0,48.0,-100.00,SE,145,9.0,12.0,48,0.00,,,0.05,,2013-06-25 18:44:00,
2013-06-25 13:01:00,70.0,46.0,-100.00,SE,144,9.0,16.0,41,0.00,,,0.05,,2013-06-25 19:01:00,
2013-06-25 13:22:00,70.0,45.0,-100.00,SSW,192,13.0,19.0,41,0.00,,,0.05,,2013-06-25 19:22:00,
2013-06-25 13:44:00,70.0,46.0,-100.00,SW,222,10.0,14.0,42,0.00,,,0.05,,2013-06-25 19:44:00,
2013-06-25 14:01:00,70.0,46.0,-100.00,SW,223,9.0,11.0,42,0.00,,,0.05,,2013-06-25 20:01:00,
2013-06-25 14:11:00,70.0,46.0,-100.00,SW,223,9.0,11.0,42,0.00,,,0.05,,2013-06-25 20:11:00,
2013-06-25 14:33:00,72.0,46.0,-100.00,South,169,11.0,15.0,39,0.00,,,0.05,,2013-06-25 20:33:00,
2013-06-25 14:52:00,71.0,46.0,-100.00,SSW,203,13.0,16.0,40,0.00,,,0.05,,2013-06-25 20:52:00,
2013-06-25 15:01:00,73.0,46.0,-100.00,SSW,192,8.0,11.0,38,0.00,,,0.05,,2013-06-25 21:01:00,
2013-06-25 15:11:00,73.0,46.0,-100.00,SSW,200,11.0,14.0,38,0.00,,,0.05,,2013-06-25 21:11:00,
2013-06-25 15:22:00,73.0,46.0,-100.00,SSW,200,11.0,14.0,38,0.00,,,0.05,,2013-06-25 21:22:00,
2013-06-25 15:33:00,73.0,46.0,-100.00,SW,220,13.0,16.0,38,0.00,,,0.05,,2013-06-25 21:33:00,
2013-06-25 15:43:00,73.0,46.0,-100.00,SW,220,13.0,16.0,38,0.00,,,0.05,,2013-06-25 21:43:00,
2013-06-25 15:53:00,73.0,46.0,-100.00,SW,220,13.0,16.0,38,0.00,,,0.05,,2013-06-25 21:53:00,
2013-06-25 16:01:00,75.0,45.0,-100.00,SSE,168,10.0,17.0,34,0.00,,,0.05,,2013-06-25 22:01:00,
2013-06-25 16:11:00,75.0,45.0,-100.00,SSW,193,8.0,12.0,34,0.00,,,0.05,,2013-06-25 22:11:00,
2013-06-25 16:22:00,75.0,45.0,-100.00,SSW,193,8.0,12.0,34,0.00,,,0.05,,2013-06-25 22:22:00,
2013-06-25 16:33:00,74.0,46.0,-100.00,SSW,208,12.0,16.0,37,0.00,,,0.05,,2013-06-25 22:33:00,
2013-06-25 16:42:00,76.0,46.0,-100.00,SSW,212,7.0,11.0,34,0.00,,,0.05,,2013-06-25 22:42:00,
2013-06-25 16:52:00,76.0,46.0,-100.00,SSW,212,7.0,11.0,34,0.00,,,0.05,,2013-06-25 22:52:00,
2013-06-25 17:01:00,77.0,45.0,-100.00,SSW,213,13.0,19.0,32,0.00,,,0.05,,2013-06-25 23:01:00,
2013-06-25 17:11:00,77.0,45.0,-100.00,SSW,213,13.0,19.0,32,0.00,,,0.05,,2013-06-25 23:11:00,
2013-06-25 17:22:00,75.0,45.0,-100.00,SSW,210,10.0,14.0,34,0.00,,,0.05,,2013-06-25 23:22:00,
2013-06-25 17:34:00,78.0,46.0,-100.00,SSW,213,11.0,17.0,32,0.00,,,0.05,,2013-06-25 23:34:00,
2013-06-25 17:43:00,79.0,45.0,-100.00,SW,223,16.0,20.0,31,0.00,,,0.05,,2013-06-25 23:43:00,
2013-06-25 17:52:00,79.0,45.0,-100.00,SW,223,16.0,20.0,31,0.00,,,0.05,,2013-06-25 23:52:00,
2013-06-25 19:33:00,78.0,46.0,-100.00,SW,232,6.0,9.0,33,0.00,,,0.05,,2013-06-26 01:33:00,
2013-06-25 19:43:00,76.0,47.0,-100.00,WSW,258,5.0,8.0,36,0.00,,,0.05,,2013-06-26 01:43:00,
2013-06-25 19:53:00,76.0,47.0,-100.00,WSW,258,5.0,8.0,36,0.00,,,0.05,,2013-06-26 01:53:00,
2013-06-25 20:01:00,76.0,47.0,-100.00,NNW,329,7.0,9.0,37,0.00,,,0.05,,2013-06-26 02:01:00,
2013-06-25 20:11:00,76.0,47.0,-100.00,NNW,329,7.0,9.0,37,0.00,,,0.05,,2013-06-26 02:11:00,
2013-06-25 20:22:00,74.0,47.0,-100.00,NNE,13,13.0,16.0,39,0.00,,,0.05,,2013-06-26 02:22:00,
2013-06-25 20:34:00,73.0,49.0,-100.00,North,349,9.0,12.0,43,0.00,,,0.05,,2013-06-26 02:34:00,
2013-06-25 20:43:00,71.0,50.0,-100.00,NNW,335,13.0,15.0,47,0.00,,,0.05,,2013-06-26 02:43:00,
2013-06-25 20:53:00,71.0,50.0,-100.00,NNW,335,13.0,15.0,47,0.00,,,0.05,,2013-06-26 02:53:00,
2013-06-25 21:01:00,70.0,51.0,-100.00,North,354,14.0,17.0,52,0.00,,,0.05,,2013-06-26 03:01:00,
2013-06-25 21:11:00,68.0,51.0,-100.00,North,6,13.0,17.0,54,0.00,,,0.05,,2013-06-26 03:11:00,
2013-06-25 21:22:00,68.0,51.0,-100.00,North,6,13.0,17.0,54,0.00,,,0.05,,2013-06-26 03:22:00,
2013-06-25 21:33:00,68.0,51.0,-100.00,NNW,340,12.0,14.0,55,0.00,,,0.05,,2013-06-26 03:33:00,
2013-06-25 21:43:00,68.0,52.0,-100.00,North,4,17.0,21.0,57,0.00,,,0.05,,2013-06-26 03:43:00,
2013-06-25 21:52:00,68.0,52.0,-100.00,North,4,17.0,21.0,57,0.00,,,0.05,,2013-06-26 03:52:00,
2013-06-25 22:01:00,65.0,53.0,-100.00,North,6,15.0,19.0,65,0.00,,,0.05,,2013-06-26 04:01:00,
2013-06-25 22:12:00,64.0,53.0,-100.00,NNW,336,13.0,15.0,69,0.00,,,0.04,,2013-06-26 04:12:00,
2013-06-25 22:22:00,64.0,53.0,-100.00,NNW,336,13.0,15.0,69,0.00,,,0.04,,2013-06-26 04:22:00,
2013-06-25 22:33:00,63.0,51.0,-100.00,NNW,328,11.0,15.0,67,0.00,,,0.04,,2013-06-26 04:33:00,
2013-06-25 22:43:00,62.0,51.0,-100.00,North,4,9.0,12.0,68,0.00,,,0.04,,2013-06-26 04:43:00,
2013-06-25 22:53:00,62.0,51.0,-100.00,North,4,9.0,12.0,68,0.00,,,0.04,,2013-06-26 04:53:00,
2013-06-25 23:02:00,61.0,52.0,-100.00,NNE,28,8.0,9.0,72,0.00,,,0.04,,2013-06-26 05:02:00,
2013-06-25 23:11:00,61.0,51.0,-100.00,North,11,7.0,9.0,71,0.00,,,0.04,,2013-06-26 05:11:00,
2013-06-25 23:33:00,62.0,51.0,-100.00,North,360,8.0,10.0,68,0.00,,,0.03,,2013-06-26 05:33:00,
2013-06-25 23:43:00,58.0,50.0,-100.00,NW,318,4.0,5.0,74,0.00,,,0.02,,2013-06-26 05:43:00,
2013-06-25 23:52:00,58.0,50.0,-100.00,NW,318,4.0,5.0,74,0.00,,,0.02,,2013-06-26 05:52:00,